Time,TemperatureF,DewpointF,PressureIn,WindDirection,WindDirectionDegrees,WindSpeedMPH,WindSpeedGustMPH,Humidity,HourlyPrecipIn,Conditions,Clouds,dailyrainin,SolarRadiationWatts/m^2,SoftwareType,DateUTC
2013-01-16 00:00:00,42.0,35.3,30.37,WNW,292,0.0,0.0,77,0.00,CLR,,0.00,0.0,WeatherDisplay:10.37,2013-01-16 08:00:00,
2013-01-16 00:05:00,42.0,35.6,30.37,WNW,292,2.3,2.3,78,0.00,CLR,,0.00,0.0,WeatherDisplay:10.37,2013-01-16 08:05:00,
2013-01-16 00:10:00,41.9,35.5,30.36,WNW,292,1.1,0.0,78,0.00,CLR,,0.00,0.0,WeatherDisplay:10.37,2013-01-16 08:10:00,
2013-01-16 00:15:00,41.8,35.4,30.36,WNW,292,1.0,1.0,78,0.00,CLR,,0.00,0.0,WeatherDisplay:10.37,2013-01-16 08:15:00,
2013-01-16 00:20:00,41.6,35.2,30.36,WNW,292,0.0,0.0,78,0.00,CLR,,0.00,0.0,WeatherDisplay:10.37,2013-01-16 08:20:00,
2013-01-16 00:25:00,41.6,35.2,30.36,WNW,292,1.1,1.1,78,0.00,CLR,,0.00,0.0,WeatherDisplay:10.37,2013-01-16 08:25:00,
2013-01-16 00:30:00,41.4,35.4,30.36,WNW,292,1.1,0.0,79,0.00,CLR,,0.00,0.0,WeatherDisplay:10.37,2013-01-16 08:30:00,
2013-01-16 00:35:00,41.4,35.4,30.36,WNW,292,1.1,1.1,79,0.00,CLR,,0.00,0.0,WeatherDisplay:10.37,2013-01-16 08:35:00,
2013-01-16 00:40:00,41.3,35.3,30.36,WNW,292,1.1,0.0,79,0.00,CLR,,0.00,0.0,WeatherDisplay:10.37,2013-01-16 08:40:00,
2013-01-16 00:45:00,41.2,35.2,30.36,SW,219,3.5,3.5,79,0.00,CLR,,0.00,0.0,WeatherDisplay:10.37,2013-01-16 08:45:00,
2013-01-16 00:50:00,41.2,35.2,30.36,SW,219,1.1,1.1,79,0.00,CLR,,0.00,0.0,WeatherDisplay:10.37,2013-01-16 08:50:00,
2013-01-16 00:55:00,41.0,34.7,30.36,SW,219,3.5,3.5,78,0.00,CLR,,0.00,0.0,WeatherDisplay:10.37,2013-01-16 08:55:00,
2013-01-16 01:00:00,40.7,34.7,30.36,SW,219,1.1,0.0,79,0.00,CLR,,0.00,0.0,WeatherDisplay:10.37,2013-01-16 09:00:00,
2013-01-16 01:05:00,40.4,34.4,30.36,SW,219,0.0,0.0,79,0.00,CLR,,0.00,0.0,WeatherDisplay:10.37,2013-01-16 09:05:00,
2013-01-16 01:10:00,40.3,34.6,30.37,SW,219,0.0,0.0,80,0.00,CLR,,0.00,0.0,WeatherDisplay:10.37,2013-01-16 09:10:00,
2013-01-16 01:15:00,40.2,34.5,30.36,SW,219,0.0,0.0,80,0.00,CLR,,0.00,0.0,WeatherDisplay:10.37,2013-01-16 09:15:00,
2013-01-16 01:20:00,40.1,34.4,30.36,SW,219,1.1,0.0,80,0.00,CLR,,0.00,0.0,WeatherDisplay:10.37,2013-01-16 09:20:00,
2013-01-16 01:25:00,39.8,34.4,30.36,SW,219,1.1,0.0,81,0.00,CLR,,0.00,0.0,WeatherDisplay:10.37,2013-01-16 09:25:00,
2013-01-16 01:30:00,39.8,34.4,30.36,SW,219,1.1,0.0,81,0.00,CLR,,0.00,0.0,WeatherDisplay:10.37,2013-01-16 09:30:00,
2013-01-16 01:35:00,39.7,34.7,30.36,SW,219,2.3,2.3,82,0.00,CLR,,0.00,0.0,WeatherDisplay:10.37,2013-01-16 09:35:00,
2013-01-16 01:40:00,39.8,34.8,30.36,SW,219,1.1,1.1,82,0.00,CLR,,0.00,0.0,WeatherDisplay:10.37,2013-01-16 09:40:00,
2013-01-16 01:45:00,39.8,34.8,30.36,SW,219,0.0,0.0,82,0.00,CLR,,0.00,0.0,WeatherDisplay:10.37,2013-01-16 09:45:00,
2013-01-16 01:50:00,39.8,34.4,30.36,SW,219,0.0,0.0,81,0.00,CLR,,0.00,0.0,WeatherDisplay:10.37,2013-01-16 09:50:00,
2013-01-16 01:55:00,39.8,34.4,30.36,SW,219,1.0,1.0,81,0.00,CLR,,0.00,0.0,WeatherDisplay:10.37,2013-01-16 09:55:00,
2013-01-16 02:00:00,40.1,34.7,30.36,SW,219,0.0,0.0,81,0.00,CLR,,0.00,0.0,WeatherDisplay:10.37,2013-01-16 10:00:00,
2013-01-16 02:05:00,40.0,34.3,30.36,SW,219,1.1,1.1,80,0.00,CLR,,0.00,0.0,WeatherDisplay:10.37,2013-01-16 10:05:00,
2013-01-16 02:10:00,40.2,34.5,30.36,West,278,2.3,2.3,80,0.00,CLR,,0.00,0.0,WeatherDisplay:10.37,2013-01-16 10:10:00,
2013-01-16 02:15:00,40.1,34.1,30.36,WNW,282,2.3,2.3,79,0.00,CLR,,0.00,0.0,WeatherDisplay:10.37,2013-01-16 10:15:00,
2013-01-16 02:20:00,40.1,34.1,30.36,WNW,282,2.3,2.3,79,0.00,CLR,,0.00,0.0,WeatherDisplay:10.37,2013-01-16 10:20:00,
2013-01-16 02:25:00,40.0,34.0,30.36,WNW,282,1.1,1.1,79,0.00,CLR,,0.00,0.0,WeatherDisplay:10.37,2013-01-16 10:25:00,
2013-01-16 02:30:00,40.0,34.0,30.36,WNW,282,2.3,2.3,79,0.00,CLR,,0.00,0.0,WeatherDisplay:10.37,2013-01-16 10:30:00,
2013-01-16 02:35:00,40.0,34.0,30.36,WNW,282,2.3,2.3,79,0.00,CLR,,0.00,0.0,WeatherDisplay:10.37,2013-01-16 10:35:00,
2013-01-16 02:40:00,39.8,33.8,30.37,WNW,282,0.0,0.0,79,0.00,CLR,,0.00,0.0,WeatherDisplay:10.37,2013-01-16 10:40:00,
2013-01-16 02:45:00,39.6,33.6,30.37,WNW,282,0.0,0.0,79,0.00,CLR,,0.00,0.0,WeatherDisplay:10.37,2013-01-16 10:45:00,
2013-01-16 02:50:00,39.5,33.5,30.37,WNW,282,0.0,0.0,79,0.00,CLR,,0.00,0.0,WeatherDisplay:10.37,2013-01-16 10:50:00,
2013-01-16 02:55:00,39.2,33.5,30.37,WNW,282,1.1,1.1,80,0.00,CLR,,0.00,0.0,WeatherDisplay:10.37,2013-01-16 10:55:00,
2013-01-16 03:00:00,38.9,33.3,30.36,WNW,282,1.1,1.1,80,0.00,CLR,,0.00,0.0,WeatherDisplay:10.37,2013-01-16 11:00:00,
2013-01-16 03:05:00,38.7,33.4,30.36,WNW,282,0.0,0.0,81,0.00,CLR,,0.00,0.0,WeatherDisplay:10.37,2013-01-16 11:05:00,
2013-01-16 03:10:00,38.6,33.3,30.36,WNW,282,1.0,1.0,81,0.00,CLR,,0.00,0.0,WeatherDisplay:10.37,2013-01-16 11:10:00,
2013-01-16 03:15:00,38.5,33.5,30.36,WNW,282,0.0,0.0,82,0.00,CLR,,0.00,0.0,WeatherDisplay:10.37,2013-01-16 11:15:00,
2013-01-16 03:20:00,38.4,33.4,30.36,WNW,282,1.1,1.1,82,0.00,CLR,,0.00,0.0,WeatherDisplay:10.37,2013-01-16 11:20:00,
2013-01-16 03:25:00,38.3,33.3,30.36,WSW,250,1.1,1.1,82,0.00,CLR,,0.00,0.0,WeatherDisplay:10.37,2013-01-16 11:25:00,
2013-01-16 03:30:00,38.2,33.2,30.36,WSW,250,2.3,2.3,82,0.00,CLR,,0.00,0.0,WeatherDisplay:10.37,2013-01-16 11:30:00,
2013-01-16 03:35:00,38.1,33.1,30.36,WSW,250,1.1,0.0,82,0.00,CLR,,0.00,0.0,WeatherDisplay:10.37,2013-01-16 11:35:00,
2013-01-16 03:40:00,38.1,33.1,30.36,WSW,250,0.0,0.0,82,0.00,CLR,,0.00,0.0,WeatherDisplay:10.37,2013-01-16 11:40:00,
2013-01-16 03:45:00,38.0,33.0,30.36,WSW,250,0.0,0.0,82,0.00,CLR,,0.00,0.0,WeatherDisplay:10.37,2013-01-16 11:45:00,
2013-01-16 03:50:00,38.0,33.3,30.36,WSW,250,0.0,0.0,83,0.00,CLR,,0.00,0.0,WeatherDisplay:10.37,2013-01-16 11:50:00,
2013-01-16 03:55:00,38.2,33.5,30.35,WSW,250,1.1,1.1,83,0.00,CLR,,0.00,0.0,WeatherDisplay:10.37,2013-01-16 11:55:00,
2013-01-16 04:00:00,38.0,33.3,30.35,WSW,254,2.3,2.3,83,0.00,CLR,,0.00,0.0,WeatherDisplay:10.37,2013-01-16 12:00:00,
2013-01-16 04:05:00,38.0,33.3,30.35,WSW,254,1.1,0.0,83,0.00,CLR,,0.00,0.0,WeatherDisplay:10.37,2013-01-16 12:05:00,
2013-01-16 04:10:00,37.9,33.2,30.35,WSW,254,0.0,0.0,83,0.00,CLR,,0.00,0.0,WeatherDisplay:10.37,2013-01-16 12:10:00,
2013-01-16 04:15:00,37.9,33.2,30.35,WSW,254,0.0,0.0,83,0.00,CLR,,0.00,0.0,WeatherDisplay:10.37,2013-01-16 12:15:00,
2013-01-16 04:20:00,37.9,33.2,30.35,WSW,254,1.0,1.0,83,0.00,CLR,,0.00,0.0,WeatherDisplay:10.37,2013-01-16 12:20:00,
2013-01-16 04:25:00,38.2,34.1,30.35,WSW,254,1.1,1.1,85,0.00,CLR,,0.00,0.0,WeatherDisplay:10.37,2013-01-16 12:25:00,
2013-01-16 04:30:00,37.9,33.2,30.36,WSW,258,2.3,2.3,83,0.00,CLR,,0.00,0.0,WeatherDisplay:10.37,2013-01-16 12:30:00,
2013-01-16 04:35:00,38.9,35.6,30.36,WSW,258,0.0,0.0,88,0.00,CLR,,0.00,0.0,WeatherDisplay:10.37,2013-01-16 12:35:00,
2013-01-16 04:40:00,38.3,34.2,30.35,WSW,258,0.0,0.0,85,0.00,CLR,,0.00,0.0,WeatherDisplay:10.37,2013-01-16 12:40:00,
2013-01-16 04:45:00,38.0,33.6,30.35,WSW,258,1.1,1.1,84,0.00,CLR,,0.00,0.0,WeatherDisplay:10.37,2013-01-16 12:45:00,
2013-01-16 04:50:00,37.7,33.0,30.35,WSW,258,1.1,1.1,83,0.00,CLR,,0.00,0.0,WeatherDisplay:10.37,2013-01-16 12:50:00,
2013-01-16 04:55:00,37.5,32.8,30.35,West,262,3.5,3.5,83,0.00,CLR,,0.00,0.0,WeatherDisplay:10.37,2013-01-16 12:55:00,
2013-01-16 05:00:00,37.5,32.5,30.35,West,267,1.1,1.1,82,0.00,CLR,,0.00,0.0,WeatherDisplay:10.37,2013-01-16 13:00:00,
2013-01-16 05:05:00,37.5,32.5,30.35,West,277,2.3,2.3,82,0.00,CLR,,0.00,0.0,WeatherDisplay:10.37,2013-01-16 13:05:00,
2013-01-16 05:10:00,37.4,32.1,30.34,West,277,1.1,0.0,81,0.00,CLR,,0.00,0.0,WeatherDisplay:10.37,2013-01-16 13:10:00,
2013-01-16 05:15:00,37.4,31.8,30.34,West,281,3.5,3.5,80,0.00,CLR,,0.00,0.0,WeatherDisplay:10.37,2013-01-16 13:15:00,
2013-01-16 05:20:00,37.6,32.3,30.34,West,281,2.3,2.3,81,0.00,CLR,,0.00,0.0,WeatherDisplay:10.37,2013-01-16 13:20:00,
2013-01-16 05:26:00,37.8,32.5,30.34,West,281,0.0,0.0,81,0.00,CLR,,0.00,0.0,WeatherDisplay:10.37,2013-01-16 13:26:00,
2013-01-16 05:31:00,37.8,32.2,30.34,West,281,0.0,0.0,80,0.00,CLR,,0.00,0.0,WeatherDisplay:10.37,2013-01-16 13:31:00,
2013-01-16 05:36:00,37.7,32.1,30.34,West,281,0.0,0.0,80,0.00,CLR,,0.00,0.0,WeatherDisplay:10.37,2013-01-16 13:36:00,
2013-01-16 05:41:00,37.6,32.0,30.34,West,281,2.0,2.0,80,0.00,CLR,,0.00,0.0,WeatherDisplay:10.37,2013-01-16 13:41:00,
2013-01-16 05:46:00,37.4,31.8,30.34,West,281,0.0,0.0,80,0.00,CLR,,0.00,0.0,WeatherDisplay:10.37,2013-01-16 13:46:00,
2013-01-16 05:51:00,37.2,31.6,30.34,West,281,1.1,0.0,80,0.00,CLR,,0.00,0.0,WeatherDisplay:10.37,2013-01-16 13:51:00,
2013-01-16 05:56:00,37.4,32.7,30.34,West,281,0.0,0.0,83,0.00,CLR,,0.00,0.0,WeatherDisplay:10.37,2013-01-16 13:56:00,
2013-01-16 06:01:00,37.6,33.2,30.34,West,281,1.1,1.1,84,0.00,CLR,,0.00,0.0,WeatherDisplay:10.37,2013-01-16 14:01:00,
2013-01-16 06:06:00,37.2,31.9,30.34,WNW,294,3.5,3.5,81,0.00,CLR,,0.00,0.0,WeatherDisplay:10.37,2013-01-16 14:06:00,
2013-01-16 06:11:00,37.1,31.5,30.34,NW,326,2.3,2.3,80,0.00,CLR,,0.00,0.0,WeatherDisplay:10.37,2013-01-16 14:11:00,
2013-01-16 06:16:00,37.3,31.7,30.34,NNW,327,2.3,2.3,80,0.00,CLR,,0.00,0.0,WeatherDisplay:10.37,2013-01-16 14:16:00,
2013-01-16 06:21:00,37.3,31.7,30.34,NNW,330,2.3,2.3,80,0.00,CLR,,0.00,0.0,WeatherDisplay:10.37,2013-01-16 14:21:00,
2013-01-16 06:26:00,37.5,31.9,30.34,NNW,333,2.3,2.3,80,0.00,CLR,,0.00,0.0,WeatherDisplay:10.37,2013-01-16 14:26:00,
2013-01-16 06:31:00,38.0,32.4,30.34,NNW,333,2.3,2.3,80,0.00,CLR,,0.00,0.0,WeatherDisplay:10.37,2013-01-16 14:31:00,
2013-01-16 06:36:00,38.8,33.8,30.34,NNW,336,1.1,1.1,82,0.00,CLR,,0.00,0.0,WeatherDisplay:10.37,2013-01-16 14:36:00,
2013-01-16 06:41:00,38.8,32.2,30.34,NNW,336,1.1,1.1,77,0.00,CLR,,0.00,0.0,WeatherDisplay:10.37,2013-01-16 14:41:00,
2013-01-16 06:46:00,38.7,31.8,30.34,NNW,336,0.0,0.0,76,0.00,CLR,,0.00,0.0,WeatherDisplay:10.37,2013-01-16 14:46:00,
2013-01-16 06:51:00,38.7,31.8,30.35,NNW,336,0.0,0.0,76,0.00,CLR,,0.00,0.0,WeatherDisplay:10.37,2013-01-16 14:51:00,
2013-01-16 06:56:00,38.6,31.7,30.35,NNW,336,0.0,0.0,76,0.00,CLR,,0.00,5.0,WeatherDisplay:10.37,2013-01-16 14:56:00,
2013-01-16 07:01:00,38.3,31.4,30.35,NNW,336,0.0,0.0,76,0.00,CLR,,0.00,5.0,WeatherDisplay:10.37,2013-01-16 15:01:00,
2013-01-16 07:06:00,38.2,31.6,30.35,NNW,336,1.1,0.0,77,0.00,SCT,,0.00,9.0,WeatherDisplay:10.37,2013-01-16 15:06:00,
2013-01-16 07:11:00,38.1,31.5,30.35,NNW,338,0.0,0.0,77,0.00,SCT,,0.00,14.0,WeatherDisplay:10.37,2013-01-16 15:11:00,
2013-01-16 07:16:00,37.9,31.3,30.35,NNW,338,1.1,1.1,77,0.00,SCT,,0.00,18.0,WeatherDisplay:10.37,2013-01-16 15:16:00,
2013-01-16 07:21:00,37.6,31.0,30.35,NNW,342,2.3,2.3,77,0.00,BKN,,0.00,19.0,WeatherDisplay:10.37,2013-01-16 15:21:00,
2013-01-16 07:26:00,37.7,31.1,30.35,North,349,2.3,2.3,77,0.00,BKN,,0.00,23.0,WeatherDisplay:10.37,2013-01-16 15:26:00,
2013-01-16 07:31:00,37.9,31.3,30.36,North,349,1.1,1.1,77,0.00,BKN,,0.00,26.0,WeatherDisplay:10.37,2013-01-16 15:31:00,
2013-01-16 07:36:00,38.3,31.7,30.36,North,355,2.3,2.3,77,0.00,BKN,,0.00,39.0,WeatherDisplay:10.37,2013-01-16 15:36:00,
2013-01-16 07:41:00,38.7,31.8,30.36,North,355,2.3,2.3,76,0.00,SCT,,0.00,56.0,WeatherDisplay:10.37,2013-01-16 15:41:00,
2013-01-16 07:46:00,39.2,31.9,30.36,North,355,1.1,0.0,75,0.00,SCT,,0.00,72.0,WeatherDisplay:10.37,2013-01-16 15:46:00,
2013-01-16 07:51:00,39.8,32.2,30.36,North,355,1.1,0.0,74,0.00,FEW,,0.00,86.0,WeatherDisplay:10.37,2013-01-16 15:51:00,
2013-01-16 07:56:00,40.9,32.9,30.36,NE,49,1.1,0.0,73,0.00,FEW,,0.00,104.0,WeatherDisplay:10.37,2013-01-16 15:56:00,
2013-01-16 08:01:00,41.9,33.2,30.36,ESE,113,2.3,0.0,71,0.00,CLR,,0.00,121.0,WeatherDisplay:10.37,2013-01-16 16:01:00,
2013-01-16 08:06:00,42.6,33.5,30.37,ESE,113,0.0,0.0,70,0.00,CLR,,0.00,135.0,WeatherDisplay:10.37,2013-01-16 16:06:00,
2013-01-16 08:11:00,43.5,33.6,30.37,ESE,113,0.0,0.0,68,0.00,CLR,,0.00,146.0,WeatherDisplay:10.37,2013-01-16 16:11:00,
2013-01-16 08:16:00,44.3,33.3,30.37,ESE,113,0.0,0.0,65,0.00,CLR,,0.00,171.0,WeatherDisplay:10.37,2013-01-16 16:16:00,
2013-01-16 08:21:00,45.2,33.3,30.37,ESE,113,0.0,0.0,63,0.00,CLR,,0.00,192.0,WeatherDisplay:10.37,2013-01-16 16:21:00,
2013-01-16 08:26:00,45.9,33.6,30.37,ESE,113,1.0,1.0,62,0.00,CLR,,0.00,209.0,WeatherDisplay:10.37,2013-01-16 16:26:00,
2013-01-16 08:31:00,46.5,33.8,30.37,ESE,110,1.1,0.0,61,0.00,CLR,,0.00,220.0,WeatherDisplay:10.37,2013-01-16 16:31:00,
2013-01-16 08:36:00,47.3,33.7,30.37,ESE,110,1.1,1.1,59,0.00,CLR,,0.00,237.0,WeatherDisplay:10.37,2013-01-16 16:36:00,
2013-01-16 08:41:00,47.6,33.5,30.37,WSW,250,2.3,2.3,58,0.00,CLR,,0.00,253.0,WeatherDisplay:10.37,2013-01-16 16:41:00,
2013-01-16 08:46:00,47.9,33.8,30.37,WNW,299,2.3,2.3,58,0.00,CLR,,0.00,274.0,WeatherDisplay:10.37,2013-01-16 16:46:00,
2013-01-16 08:51:00,48.2,34.1,30.37,WNW,298,2.3,2.3,58,0.00,CLR,,0.00,288.0,WeatherDisplay:10.37,2013-01-16 16:51:00,
2013-01-16 08:56:00,48.6,34.5,30.37,WNW,295,1.1,1.1,58,0.00,CLR,,0.00,297.0,WeatherDisplay:10.37,2013-01-16 16:56:00,
2013-01-16 09:01:00,49.1,34.1,30.37,WNW,295,2.3,0.0,56,0.00,CLR,,0.00,308.0,WeatherDisplay:10.37,2013-01-16 17:01:00,
2013-01-16 09:06:00,49.7,33.7,30.37,WNW,295,1.1,0.0,54,0.00,CLR,,0.00,325.0,WeatherDisplay:10.37,2013-01-16 17:06:00,
2013-01-16 09:11:00,50.9,33.9,30.36,WNW,294,0.0,0.0,52,0.00,CLR,,0.00,341.0,WeatherDisplay:10.37,2013-01-16 17:11:00,
2013-01-16 09:16:00,51.5,33.0,30.36,West,279,3.5,3.5,49,0.00,CLR,,0.00,357.0,WeatherDisplay:10.37,2013-01-16 17:16:00,
2013-01-16 09:21:00,51.7,34.1,30.36,WNW,283,0.0,0.0,51,0.00,CLR,,0.00,367.0,WeatherDisplay:10.37,2013-01-16 17:21:00,
2013-01-16 09:26:00,52.2,33.6,30.36,WNW,283,1.1,0.0,49,0.00,CLR,,0.00,380.0,WeatherDisplay:10.37,2013-01-16 17:26:00,
2013-01-16 09:31:00,52.8,32.0,30.36,WNW,283,1.1,0.0,45,0.00,CLR,,0.00,388.0,WeatherDisplay:10.37,2013-01-16 17:31:00,
2013-01-16 09:36:00,53.7,33.4,30.36,WSW,254,2.3,2.3,46,0.00,CLR,,0.00,390.0,WeatherDisplay:10.37,2013-01-16 17:36:00,
2013-01-16 09:41:00,54.2,31.6,30.36,SSW,210,3.0,3.0,42,0.00,CLR,,0.00,406.0,WeatherDisplay:10.37,2013-01-16 17:41:00,
2013-01-16 09:46:00,54.5,34.7,30.36,SSW,212,5.0,5.0,47,0.00,CLR,,0.00,415.0,WeatherDisplay:10.37,2013-01-16 17:46:00,
2013-01-16 09:51:00,54.5,34.1,30.36,South,184,4.6,4.6,46,0.00,CLR,,0.00,431.0,WeatherDisplay:10.37,2013-01-16 17:51:00,
2013-01-16 09:56:00,54.7,33.8,30.35,South,178,3.5,3.5,45,0.00,CLR,,0.00,443.0,WeatherDisplay:10.37,2013-01-16 17:56:00,
2013-01-16 10:01:00,55.4,34.4,30.35,South,180,2.3,2.3,45,0.00,CLR,,0.00,454.0,WeatherDisplay:10.37,2013-01-16 18:01:00,
2013-01-16 10:06:00,55.5,33.3,30.35,South,183,4.0,4.0,43,0.00,CLR,,0.00,462.0,WeatherDisplay:10.37,2013-01-16 18:06:00,
2013-01-16 10:11:00,55.6,34.0,30.35,South,180,4.6,4.6,44,0.00,CLR,,0.00,471.0,WeatherDisplay:10.37,2013-01-16 18:11:00,
2013-01-16 10:16:00,55.8,33.6,30.34,SSW,192,4.6,4.6,43,0.00,CLR,,0.00,480.0,WeatherDisplay:10.37,2013-01-16 18:16:00,
2013-01-16 10:21:00,56.0,33.8,30.34,SSW,196,2.3,2.3,43,0.00,CLR,,0.00,487.0,WeatherDisplay:10.37,2013-01-16 18:21:00,
2013-01-16 10:26:00,56.8,33.3,30.34,SSW,199,2.3,2.3,41,0.00,CLR,,0.00,496.0,WeatherDisplay:10.37,2013-01-16 18:26:00,
2013-01-16 10:31:00,57.2,33.1,30.34,SSW,210,3.0,3.0,40,0.00,CLR,,0.00,503.0,WeatherDisplay:10.37,2013-01-16 18:31:00,
2013-01-16 10:36:00,57.6,32.8,30.33,SSW,210,2.0,2.0,39,0.00,CLR,,0.00,515.0,WeatherDisplay:10.37,2013-01-16 18:36:00,
2013-01-16 10:41:00,57.9,32.4,30.33,SSW,210,1.1,0.0,38,0.00,CLR,,0.00,519.0,WeatherDisplay:10.37,2013-01-16 18:41:00,
2013-01-16 10:46:00,58.6,32.4,30.33,WSW,251,4.0,4.0,37,0.00,CLR,,0.00,526.0,WeatherDisplay:10.37,2013-01-16 18:46:00,
2013-01-16 10:51:00,58.7,32.5,30.32,West,265,4.0,4.0,37,0.00,CLR,,0.00,531.0,WeatherDisplay:10.37,2013-01-16 18:51:00,
2013-01-16 10:56:00,59.0,32.1,30.32,West,269,3.5,3.5,36,0.00,CLR,,0.00,538.0,WeatherDisplay:10.37,2013-01-16 18:56:00,
2013-01-16 11:01:00,59.5,32.5,30.31,West,273,4.0,4.0,36,0.00,CLR,,0.00,541.0,WeatherDisplay:10.37,2013-01-16 19:01:00,
2013-01-16 11:06:00,59.8,32.1,30.31,WNW,295,3.5,3.5,35,0.00,CLR,,0.00,545.0,WeatherDisplay:10.37,2013-01-16 19:06:00,
2013-01-16 11:11:00,60.4,31.9,30.30,West,264,3.5,3.5,34,0.00,CLR,,0.00,545.0,WeatherDisplay:10.37,2013-01-16 19:11:00,
2013-01-16 11:16:00,61.1,33.2,30.30,West,276,3.5,3.5,35,0.00,CLR,,0.00,552.0,WeatherDisplay:10.37,2013-01-16 19:16:00,
2013-01-16 11:21:00,62.0,33.3,30.30,West,280,2.0,2.0,34,0.00,CLR,,0.00,557.0,WeatherDisplay:10.37,2013-01-16 19:21:00,
2013-01-16 11:26:00,62.6,32.3,30.29,West,267,3.5,3.5,32,0.00,CLR,,0.00,555.0,WeatherDisplay:10.37,2013-01-16 19:26:00,
2013-01-16 11:31:00,62.6,31.5,30.29,West,275,3.5,3.5,31,0.00,CLR,,0.00,561.0,WeatherDisplay:10.37,2013-01-16 19:31:00,
2013-01-16 11:36:00,62.9,31.8,30.28,WSW,248,3.5,3.5,31,0.00,CLR,,0.00,564.0,WeatherDisplay:10.37,2013-01-16 19:36:00,
2013-01-16 11:41:00,63.3,31.3,30.28,WSW,252,3.5,3.5,30,0.00,CLR,,0.00,568.0,WeatherDisplay:10.37,2013-01-16 19:41:00,
2013-01-16 11:46:00,63.7,30.8,30.27,WNW,300,3.5,3.5,29,0.00,CLR,,0.00,573.0,WeatherDisplay:10.37,2013-01-16 19:46:00,
2013-01-16 11:51:00,64.0,31.1,30.27,West,276,3.5,3.5,29,0.00,CLR,,0.00,571.0,WeatherDisplay:10.37,2013-01-16 19:51:00,
2013-01-16 11:56:00,64.5,30.6,30.26,West,281,4.0,4.0,28,0.00,CLR,,0.00,568.0,WeatherDisplay:10.37,2013-01-16 19:56:00,
2013-01-16 12:01:00,64.7,30.8,30.26,West,268,2.3,0.0,28,0.00,CLR,,0.00,568.0,WeatherDisplay:10.37,2013-01-16 20:01:00,
2013-01-16 12:06:00,65.7,29.8,30.26,WSW,246,2.3,2.3,26,0.00,CLR,,0.00,568.0,WeatherDisplay:10.37,2013-01-16 20:06:00,
2013-01-16 12:11:00,66.3,29.4,30.25,WSW,250,3.5,3.5,25,0.00,CLR,,0.00,570.0,WeatherDisplay:10.37,2013-01-16 20:11:00,
2013-01-16 12:16:00,66.0,28.1,30.25,West,275,5.8,5.8,24,0.00,CLR,,0.00,571.0,WeatherDisplay:10.37,2013-01-16 20:16:00,
2013-01-16 12:21:00,65.8,29.0,30.25,WSW,252,3.5,3.5,25,0.00,CLR,,0.00,571.0,WeatherDisplay:10.37,2013-01-16 20:21:00,
2013-01-16 12:26:00,66.3,28.4,30.24,WSW,252,2.0,2.0,24,0.00,CLR,,0.00,566.0,WeatherDisplay:10.37,2013-01-16 20:26:00,
2013-01-16 12:31:00,67.0,27.9,30.24,West,277,3.5,3.5,23,0.00,CLR,,0.00,563.0,WeatherDisplay:10.37,2013-01-16 20:31:00,
2013-01-16 12:36:00,66.6,27.6,30.23,WNW,284,3.5,3.5,23,0.00,CLR,,0.00,563.0,WeatherDisplay:10.37,2013-01-16 20:36:00,
2013-01-16 12:41:00,66.9,26.8,30.23,NW,309,4.6,4.6,22,0.00,CLR,,0.00,563.0,WeatherDisplay:10.37,2013-01-16 20:41:00,
2013-01-16 12:46:00,67.1,28.0,30.23,NW,317,3.5,3.5,23,0.00,CLR,,0.00,555.0,WeatherDisplay:10.37,2013-01-16 20:46:00,
2013-01-16 12:51:00,67.1,26.9,30.22,NW,325,5.8,5.8,22,0.00,CLR,,0.00,554.0,WeatherDisplay:10.37,2013-01-16 20:51:00,
2013-01-16 12:56:00,67.3,27.1,30.22,NW,325,4.0,4.0,22,0.00,CLR,,0.00,548.0,WeatherDisplay:10.37,2013-01-16 20:56:00,
2013-01-16 13:01:00,67.1,26.9,30.22,NW,317,5.0,5.0,22,0.00,CLR,,0.00,543.0,WeatherDisplay:10.37,2013-01-16 21:01:00,
2013-01-16 13:06:00,67.0,26.9,30.21,NW,320,3.5,3.5,22,0.00,CLR,,0.00,536.0,WeatherDisplay:10.37,2013-01-16 21:06:00,
2013-01-16 13:11:00,67.4,26.1,30.21,West,272,4.6,4.6,21,0.00,FEW,,0.00,403.0,WeatherDisplay:10.37,2013-01-16 21:11:00,
2013-01-16 13:16:00,67.5,26.2,30.21,WNW,299,3.5,3.5,21,0.00,CLR,,0.00,527.0,WeatherDisplay:10.37,2013-01-16 21:16:00,
2013-01-16 13:21:00,67.9,26.5,30.20,West,265,3.5,3.5,21,0.00,CLR,,0.00,520.0,WeatherDisplay:10.37,2013-01-16 21:21:00,
2013-01-16 13:26:00,68.1,26.7,30.20,WSW,254,2.3,2.3,21,0.00,CLR,,0.00,515.0,WeatherDisplay:10.37,2013-01-16 21:26:00,
2013-01-16 13:31:00,68.6,27.1,30.20,WSW,256,3.5,3.5,21,0.00,CLR,,0.00,503.0,WeatherDisplay:10.37,2013-01-16 21:31:00,
2013-01-16 13:36:00,69.2,27.6,30.20,WNW,289,6.0,6.0,21,0.00,CLR,,0.00,497.0,WeatherDisplay:10.37,2013-01-16 21:36:00,
2013-01-16 13:41:00,68.8,27.2,30.19,WNW,287,3.0,3.0,21,0.00,CLR,,0.00,492.0,WeatherDisplay:10.37,2013-01-16 21:41:00,
2013-01-16 13:46:00,69.2,27.6,30.19,West,265,4.6,4.6,21,0.00,CLR,,0.00,487.0,WeatherDisplay:10.37,2013-01-16 21:46:00,
2013-01-16 13:51:00,69.2,27.6,30.19,WNW,284,5.8,5.8,21,0.00,CLR,,0.00,471.0,WeatherDisplay:10.37,2013-01-16 21:51:00,
2013-01-16 13:56:00,68.8,26.1,30.19,WNW,291,6.9,6.9,20,0.00,CLR,,0.00,466.0,WeatherDisplay:10.37,2013-01-16 21:56:00,
2013-01-16 14:01:00,68.3,26.8,30.18,NW,313,5.8,5.8,21,0.00,CLR,,0.00,457.0,WeatherDisplay:10.37,2013-01-16 22:01:00,
2013-01-16 14:06:00,68.6,27.1,30.18,NW,310,4.6,4.6,21,0.00,CLR,,0.00,446.0,WeatherDisplay:10.37,2013-01-16 22:06:00,
2013-01-16 14:11:00,69.2,27.6,30.18,WNW,284,6.0,6.0,21,0.00,CLR,,0.00,439.0,WeatherDisplay:10.37,2013-01-16 22:11:00,
2013-01-16 14:16:00,69.3,27.7,30.18,WNW,288,6.0,6.0,21,0.00,CLR,,0.00,431.0,WeatherDisplay:10.37,2013-01-16 22:16:00,
2013-01-16 14:21:00,69.4,27.7,30.18,WSW,257,5.0,5.0,21,0.00,CLR,,0.00,418.0,WeatherDisplay:10.37,2013-01-16 22:21:00,
2013-01-16 14:26:00,69.3,26.5,30.18,WNW,291,3.5,3.5,20,0.00,CLR,,0.00,408.0,WeatherDisplay:10.37,2013-01-16 22:26:00,
2013-01-16 14:31:00,69.7,26.8,30.18,WSW,252,6.0,6.0,20,0.00,CLR,,0.00,396.0,WeatherDisplay:10.37,2013-01-16 22:31:00,
2013-01-16 14:36:00,69.6,25.5,30.18,NW,309,5.8,5.8,19,0.00,CLR,,0.00,381.0,WeatherDisplay:10.37,2013-01-16 22:36:00,
2013-01-16 14:41:00,69.3,26.5,30.18,NW,311,6.0,6.0,20,0.00,CLR,,0.00,371.0,WeatherDisplay:10.37,2013-01-16 22:41:00,
2013-01-16 14:46:00,69.7,26.8,30.18,SSW,201,4.0,4.0,20,0.00,CLR,,0.00,359.0,WeatherDisplay:10.37,2013-01-16 22:46:00,
2013-01-16 14:51:00,69.9,27.0,30.18,SW,216,5.0,5.0,20,0.00,CLR,,0.00,345.0,WeatherDisplay:10.37,2013-01-16 22:51:00,
2013-01-16 14:57:00,70.2,27.2,30.17,West,263,8.1,8.1,20,0.00,CLR,,0.00,338.0,WeatherDisplay:10.37,2013-01-16 22:57:00,
2013-01-16 15:02:00,70.3,26.1,30.17,WSW,248,4.0,4.0,19,0.00,CLR,,0.00,320.0,WeatherDisplay:10.37,2013-01-16 23:02:00,
2013-01-16 15:07:00,69.8,30.3,30.17,West,276,11.5,11.5,23,0.00,CLR,,0.00,302.0,WeatherDisplay:10.37,2013-01-16 23:07:00,
2013-01-16 15:12:00,69.0,30.7,30.17,West,279,8.1,8.1,24,0.00,CLR,,0.00,292.0,WeatherDisplay:10.37,2013-01-16 23:12:00,
2013-01-16 15:17:00,68.6,31.3,30.17,NW,309,9.0,9.0,25,0.00,CLR,,0.00,281.0,WeatherDisplay:10.37,2013-01-16 23:17:00,
2013-01-16 15:22:00,68.1,29.9,30.17,WNW,289,9.2,9.2,24,0.00,CLR,,0.00,265.0,WeatherDisplay:10.37,2013-01-16 23:22:00,
2013-01-16 15:27:00,68.3,30.1,30.17,West,275,5.8,5.8,24,0.00,CLR,,0.00,253.0,WeatherDisplay:10.37,2013-01-16 23:27:00,
2013-01-16 15:32:00,68.3,30.1,30.17,WNW,285,9.2,9.2,24,0.00,CLR,,0.00,237.0,WeatherDisplay:10.37,2013-01-16 23:32:00,
2013-01-16 15:37:00,68.1,29.9,30.17,West,281,7.0,7.0,24,0.00,CLR,,0.00,223.0,WeatherDisplay:10.37,2013-01-16 23:37:00,
2013-01-16 15:42:00,68.0,29.8,30.17,WNW,286,7.0,7.0,24,0.00,CLR,,0.00,206.0,WeatherDisplay:10.37,2013-01-16 23:42:00,
2013-01-16 15:47:00,67.7,29.6,30.17,WSW,252,6.9,6.9,24,0.00,CLR,,0.00,192.0,WeatherDisplay:10.37,2013-01-16 23:47:00,
2013-01-16 15:52:00,67.7,28.5,30.17,West,272,7.0,7.0,23,0.00,CLR,,0.00,174.0,WeatherDisplay:10.37,2013-01-16 23:52:00,
2013-01-16 15:57:00,67.5,28.4,30.17,NW,304,5.8,5.8,23,0.00,CLR,,0.00,155.0,WeatherDisplay:10.37,2013-01-16 23:57:00,
2013-01-16 16:02:00,67.4,28.3,30.17,WNW,285,8.0,8.0,23,0.00,CLR,,0.00,135.0,WeatherDisplay:10.37,2013-01-17 00:02:00,
2013-01-16 16:07:00,67.3,28.2,30.17,West,268,10.4,10.4,23,0.00,CLR,,0.00,118.0,WeatherDisplay:10.37,2013-01-17 00:07:00,
2013-01-16 16:12:00,66.9,28.9,30.17,West,269,8.1,8.1,24,0.00,CLR,,0.00,100.0,WeatherDisplay:10.37,2013-01-17 00:12:00,
2013-01-16 16:17:00,66.8,27.8,30.17,West,274,8.1,8.1,23,0.00,CLR,,0.00,86.0,WeatherDisplay:10.37,2013-01-17 00:17:00,
2013-01-16 16:22:00,66.5,28.6,30.17,WNW,288,8.1,8.1,24,0.00,FEW,,0.00,70.0,WeatherDisplay:10.37,2013-01-17 00:22:00,
2013-01-16 16:27:00,66.0,30.1,30.17,West,275,6.9,6.9,26,0.00,BKN,,0.00,25.0,WeatherDisplay:10.37,2013-01-17 00:27:00,
2013-01-16 16:32:00,65.7,31.7,30.17,WNW,288,7.0,7.0,28,0.00,BKN,,0.00,19.0,WeatherDisplay:10.37,2013-01-17 00:32:00,
2013-01-16 16:37:00,65.2,32.1,30.17,West,274,6.9,6.9,29,0.00,BKN,,0.00,18.0,WeatherDisplay:10.37,2013-01-17 00:37:00,
2013-01-16 16:42:00,64.7,31.7,30.17,West,279,6.0,6.0,29,0.00,BKN,,0.00,19.0,WeatherDisplay:10.37,2013-01-17 00:42:00,
2013-01-16 16:47:00,64.5,32.4,30.17,West,279,4.6,4.6,30,0.00,BKN,,0.00,14.0,WeatherDisplay:10.37,2013-01-17 00:47:00,
2013-01-16 16:52:00,64.2,32.1,30.17,West,277,5.8,5.8,30,0.00,SCT,,0.00,12.0,WeatherDisplay:10.37,2013-01-17 00:52:00,
2013-01-16 16:57:00,63.9,32.6,30.17,WNW,291,5.0,5.0,31,0.00,CLR,,0.00,11.0,WeatherDisplay:10.37,2013-01-17 00:57:00,
2013-01-16 17:02:00,63.5,31.5,30.17,WNW,298,4.6,4.6,30,0.00,CLR,,0.00,7.0,WeatherDisplay:10.37,2013-01-17 01:02:00,
2013-01-16 17:07:00,63.1,31.9,30.17,WNW,294,4.0,4.0,31,0.00,CLR,,0.00,5.0,WeatherDisplay:10.37,2013-01-17 01:07:00,
2013-01-16 17:12:00,62.9,31.8,30.17,WNW,294,3.5,3.5,31,0.00,CLR,,0.00,0.0,WeatherDisplay:10.37,2013-01-17 01:12:00,
2013-01-16 17:17:00,62.6,32.3,30.17,WNW,294,3.5,3.5,32,0.00,CLR,,0.00,0.0,WeatherDisplay:10.37,2013-01-17 01:17:00,
2013-01-16 17:22:00,62.2,32.0,30.17,WNW,288,4.6,4.6,32,0.00,CLR,,0.00,0.0,WeatherDisplay:10.37,2013-01-17 01:22:00,
2013-01-16 17:27:00,61.9,32.5,30.17,WNW,291,3.5,3.5,33,0.00,CLR,,0.00,0.0,WeatherDisplay:10.37,2013-01-17 01:27:00,
2013-01-16 17:32:00,61.6,32.9,30.17,WNW,302,3.5,3.5,34,0.00,CLR,,0.00,0.0,WeatherDisplay:10.37,2013-01-17 01:32:00,
2013-01-16 17:37:00,61.2,33.3,30.17,NW,311,3.5,3.5,35,0.00,CLR,,0.00,0.0,WeatherDisplay:10.37,2013-01-17 01:37:00,
2013-01-16 17:42:00,60.8,33.7,30.17,NW,312,3.5,3.5,36,0.00,CLR,,0.00,0.0,WeatherDisplay:10.37,2013-01-17 01:42:00,
2013-01-16 17:47:00,60.5,33.4,30.17,NW,313,2.3,2.3,36,0.00,CLR,,0.00,0.0,WeatherDisplay:10.37,2013-01-17 01:47:00,
2013-01-16 17:52:00,60.3,33.9,30.17,WNW,301,4.0,4.0,37,0.00,CLR,,0.00,0.0,WeatherDisplay:10.37,2013-01-17 01:52:00,
2013-01-16 17:57:00,60.0,35.0,30.18,NW,315,3.5,3.5,39,0.00,CLR,,0.00,0.0,WeatherDisplay:10.37,2013-01-17 01:57:00,
2013-01-16 18:02:00,59.9,35.5,30.18,NW,315,2.3,2.3,40,0.00,CLR,,0.00,0.0,WeatherDisplay:10.37,2013-01-17 02:02:00,
2013-01-16 18:07:00,59.6,35.9,30.18,NW,315,3.5,3.5,41,0.00,CLR,,0.00,0.0,WeatherDisplay:10.37,2013-01-17 02:07:00,
2013-01-16 18:12:00,59.3,36.2,30.18,NW,315,2.3,0.0,42,0.00,CLR,,0.00,0.0,WeatherDisplay:10.37,2013-01-17 02:12:00,
2013-01-16 18:17:00,59.1,36.6,30.18,NW,315,3.5,3.5,43,0.00,CLR,,0.00,0.0,WeatherDisplay:10.37,2013-01-17 02:17:00,
2013-01-16 18:22:00,58.8,36.9,30.18,NW,315,3.5,3.5,44,0.00,CLR,,0.00,0.0,WeatherDisplay:10.37,2013-01-17 02:22:00,
2013-01-16 18:27:00,58.6,37.3,30.18,NW,315,2.3,2.3,45,0.00,CLR,,0.00,0.0,WeatherDisplay:10.37,2013-01-17 02:27:00,
2013-01-16 18:32:00,58.4,37.7,30.17,NW,315,3.5,3.5,46,0.00,CLR,,0.00,0.0,WeatherDisplay:10.37,2013-01-17 02:32:00,
2013-01-16 18:37:00,58.1,38.0,30.18,NW,316,4.0,4.0,47,0.00,CLR,,0.00,0.0,WeatherDisplay:10.37,2013-01-17 02:37:00,
2013-01-16 18:42:00,57.9,37.8,30.18,NW,316,2.3,2.3,47,0.00,CLR,,0.00,0.0,WeatherDisplay:10.37,2013-01-17 02:42:00,
2013-01-16 18:47:00,57.7,38.1,30.18,NW,316,1.1,1.1,48,0.00,CLR,,0.00,0.0,WeatherDisplay:10.37,2013-01-17 02:47:00,
2013-01-16 18:52:00,57.4,37.9,30.17,NW,315,2.3,2.3,48,0.00,CLR,,0.00,0.0,WeatherDisplay:10.37,2013-01-17 02:52:00,
2013-01-16 18:57:00,57.1,38.1,30.17,NW,315,3.5,3.5,49,0.00,CLR,,0.00,0.0,WeatherDisplay:10.37,2013-01-17 02:57:00,
2013-01-16 19:02:00,56.8,38.3,30.17,NW,316,3.5,3.5,50,0.00,CLR,,0.00,0.0,WeatherDisplay:10.37,2013-01-17 03:02:00,
2013-01-16 19:07:00,56.6,38.2,30.17,NW,316,3.5,3.5,50,0.00,CLR,,0.00,0.0,WeatherDisplay:10.37,2013-01-17 03:07:00,
2013-01-16 19:12:00,56.4,38.0,30.17,NW,316,0.0,0.0,50,0.00,CLR,,0.00,0.0,WeatherDisplay:10.37,2013-01-17 03:12:00,
2013-01-16 19:17:00,56.1,38.2,30.17,NW,316,1.1,0.0,51,0.00,CLR,,0.00,0.0,WeatherDisplay:10.37,2013-01-17 03:17:00,
2013-01-16 19:22:00,55.8,37.9,30.17,NW,316,0.0,0.0,51,0.00,CLR,,0.00,0.0,WeatherDisplay:10.37,2013-01-17 03:22:00,
2013-01-16 19:27:00,55.5,38.1,30.17,NW,316,0.0,0.0,52,0.00,CLR,,0.00,0.0,WeatherDisplay:10.37,2013-01-17 03:27:00,
2013-01-16 19:32:00,55.2,37.9,30.17,NW,316,0.0,0.0,52,0.00,CLR,,0.00,0.0,WeatherDisplay:10.37,2013-01-17 03:32:00,
2013-01-16 19:37:00,54.8,38.0,30.17,NW,316,0.0,0.0,53,0.00,CLR,,0.00,0.0,WeatherDisplay:10.37,2013-01-17 03:37:00,
2013-01-16 19:42:00,54.4,38.1,30.17,NW,316,0.0,0.0,54,0.00,CLR,,0.00,0.0,WeatherDisplay:10.37,2013-01-17 03:42:00,
2013-01-16 19:47:00,54.9,44.5,30.17,NW,316,0.0,0.0,68,0.00,CLR,,0.00,0.0,WeatherDisplay:10.37,2013-01-17 03:47:00,
2013-01-16 19:52:00,54.6,39.2,30.17,NW,316,0.0,0.0,56,0.00,CLR,,0.00,0.0,WeatherDisplay:10.37,2013-01-17 03:52:00,
2013-01-16 19:57:00,54.7,40.2,30.17,NW,315,0.0,0.0,58,0.00,CLR,,0.00,0.0,WeatherDisplay:10.37,2013-01-17 03:57:00,
2013-01-16 20:02:00,54.1,38.7,30.17,NW,316,2.3,2.3,56,0.00,CLR,,0.00,0.0,WeatherDisplay:10.37,2013-01-17 04:02:00,
2013-01-16 20:07:00,53.5,38.2,30.17,NW,316,1.1,0.0,56,0.00,CLR,,0.00,0.0,WeatherDisplay:10.37,2013-01-17 04:07:00,
2013-01-16 20:12:00,53.2,38.4,30.16,NW,316,0.0,0.0,57,0.00,CLR,,0.00,0.0,WeatherDisplay:10.37,2013-01-17 04:12:00,
2013-01-16 20:17:00,52.8,38.0,30.16,NW,316,1.1,0.0,57,0.00,CLR,,0.00,0.0,WeatherDisplay:10.37,2013-01-17 04:17:00,
2013-01-16 20:22:00,52.5,38.1,30.16,NW,316,0.0,0.0,58,0.00,CLR,,0.00,0.0,WeatherDisplay:10.37,2013-01-17 04:22:00,
2013-01-16 20:27:00,52.1,38.2,30.16,NW,316,0.0,0.0,59,0.00,CLR,,0.00,0.0,WeatherDisplay:10.37,2013-01-17 04:27:00,
2013-01-16 20:32:00,51.8,38.3,30.16,NW,316,0.0,0.0,60,0.00,CLR,,0.00,0.0,WeatherDisplay:10.37,2013-01-17 04:32:00,
2013-01-16 20:37:00,51.4,38.0,30.16,NW,316,1.1,1.1,60,0.00,CLR,,0.00,0.0,WeatherDisplay:10.37,2013-01-17 04:37:00,
2013-01-16 20:42:00,51.0,37.2,30.16,NW,316,0.0,0.0,59,0.00,CLR,,0.00,0.0,WeatherDisplay:10.37,2013-01-17 04:42:00,
2013-01-16 20:47:00,50.8,37.0,30.16,NW,316,0.0,0.0,59,0.00,CLR,,0.00,0.0,WeatherDisplay:10.37,2013-01-17 04:47:00,
2013-01-16 20:52:00,50.6,35.9,30.15,NW,316,2.3,2.3,57,0.00,CLR,,0.00,0.0,WeatherDisplay:10.37,2013-01-17 04:52:00,
2013-01-16 20:57:00,50.5,35.8,30.16,NW,316,0.0,0.0,57,0.00,CLR,,0.00,0.0,WeatherDisplay:10.37,2013-01-17 04:57:00,
2013-01-16 21:01:00,50.4,36.2,30.15,NW,316,0.0,0.1,58,0.00,CLR,,0.00,0.0,WeatherDisplay:10.37,2013-01-17 05:01:00,
2013-01-16 21:03:00,50.4,35.7,30.15,NW,316,1.1,1.1,57,0.00,CLR,,0.00,0.0,WeatherDisplay:10.37,2013-01-17 05:03:00,
2013-01-16 21:04:00,50.4,35.7,30.15,NW,316,1.1,1.1,57,0.00,CLR,,0.00,0.0,WeatherDisplay:10.37,2013-01-17 05:04:00,
2013-01-16 21:09:00,50.7,36.0,30.15,NW,316,1.0,1.0,57,0.00,CLR,,0.00,0.0,WeatherDisplay:10.37,2013-01-17 05:09:00,
2013-01-16 21:14:00,50.7,36.0,30.15,NW,316,0.0,0.0,57,0.00,CLR,,0.00,0.0,WeatherDisplay:10.37,2013-01-17 05:14:00,
2013-01-16 21:19:00,50.6,35.9,30.15,NW,316,0.0,0.0,57,0.00,CLR,,0.00,0.0,WeatherDisplay:10.37,2013-01-17 05:19:00,
2013-01-16 21:24:00,50.4,36.2,30.15,NW,316,0.0,0.0,58,0.00,CLR,,0.00,0.0,WeatherDisplay:10.37,2013-01-17 05:24:00,
2013-01-16 21:29:00,50.0,35.8,30.15,NW,316,0.0,0.0,58,0.00,CLR,,0.00,0.0,WeatherDisplay:10.37,2013-01-17 05:29:00,
2013-01-16 21:34:00,49.7,35.9,30.15,NW,316,0.0,0.0,59,0.00,CLR,,0.00,0.0,WeatherDisplay:10.37,2013-01-17 05:34:00,
2013-01-16 21:39:00,49.4,35.7,30.14,NW,316,1.1,1.1,59,0.00,CLR,,0.00,0.0,WeatherDisplay:10.37,2013-01-17 05:39:00,
2013-01-16 21:44:00,49.5,35.8,30.15,NW,316,1.1,0.0,59,0.00,CLR,,0.00,0.0,WeatherDisplay:10.37,2013-01-17 05:44:00,
2013-01-16 21:49:00,49.2,35.5,30.14,NW,316,0.0,0.0,59,0.00,CLR,,0.00,0.0,WeatherDisplay:10.37,2013-01-17 05:49:00,
2013-01-16 21:54:00,48.8,35.1,30.15,NW,316,0.0,0.0,59,0.00,CLR,,0.00,0.0,WeatherDisplay:10.37,2013-01-17 05:54:00,
2013-01-16 21:59:00,48.5,35.2,30.14,NW,316,3.5,3.5,60,0.00,CLR,,0.00,0.0,WeatherDisplay:10.37,2013-01-17 05:59:00,
2013-01-16 22:04:00,48.3,35.0,30.15,NW,316,2.3,2.3,60,0.00,CLR,,0.00,0.0,WeatherDisplay:10.37,2013-01-17 06:04:00,
2013-01-16 22:09:00,48.3,35.5,30.15,NW,316,1.1,1.1,61,0.00,CLR,,0.00,0.0,WeatherDisplay:10.37,2013-01-17 06:09:00,
2013-01-16 22:14:00,48.3,35.0,30.15,NW,316,0.0,0.0,60,0.00,CLR,,0.00,0.0,WeatherDisplay:10.37,2013-01-17 06:14:00,
2013-01-16 22:19:00,48.2,35.4,30.14,NW,316,0.0,0.0,61,0.00,CLR,,0.00,0.0,WeatherDisplay:10.37,2013-01-17 06:19:00,
2013-01-16 22:24:00,48.3,35.5,30.14,NW,316,3.5,3.5,61,0.00,CLR,,0.00,0.0,WeatherDisplay:10.37,2013-01-17 06:24:00,
2013-01-16 22:29:00,48.6,35.3,30.14,NW,316,2.3,2.3,60,0.00,CLR,,0.00,0.0,WeatherDisplay:10.37,2013-01-17 06:29:00,
2013-01-16 22:34:00,48.9,35.6,30.14,NW,316,2.3,2.3,60,0.00,CLR,,0.00,0.0,WeatherDisplay:10.37,2013-01-17 06:34:00,
2013-01-16 22:39:00,49.1,35.4,30.14,NW,316,2.3,2.3,59,0.00,CLR,,0.00,0.0,WeatherDisplay:10.37,2013-01-17 06:39:00,
2013-01-16 22:44:00,49.2,35.5,30.14,NW,316,2.3,2.3,59,0.00,CLR,,0.00,0.0,WeatherDisplay:10.37,2013-01-17 06:44:00,
2013-01-16 22:49:00,49.2,35.5,30.14,NW,316,3.0,3.0,59,0.00,CLR,,0.00,0.0,WeatherDisplay:10.37,2013-01-17 06:49:00,
2013-01-16 22:54:00,49.3,35.1,30.14,NW,317,2.3,2.3,58,0.00,CLR,,0.00,0.0,WeatherDisplay:10.37,2013-01-17 06:54:00,
2013-01-16 22:59:00,49.4,35.2,30.14,NW,321,3.5,3.5,58,0.00,CLR,,0.00,0.0,WeatherDisplay:10.37,2013-01-17 06:59:00,
2013-01-16 23:04:00,49.2,35.0,30.14,NW,324,3.5,3.5,58,0.00,CLR,,0.00,0.0,WeatherDisplay:10.37,2013-01-17 07:04:00,
2013-01-16 23:09:00,49.1,34.9,30.14,NW,325,3.5,3.5,58,0.00,CLR,,0.00,0.0,WeatherDisplay:10.37,2013-01-17 07:09:00,
2013-01-16 23:14:00,49.0,35.3,30.14,NW,325,2.3,2.3,59,0.00,CLR,,0.00,0.0,WeatherDisplay:10.37,2013-01-17 07:14:00,
2013-01-16 23:19:00,48.7,35.0,30.14,NW,325,2.3,2.3,59,0.00,CLR,,0.00,0.0,WeatherDisplay:10.37,2013-01-17 07:19:00,
2013-01-16 23:24:00,48.6,34.5,30.14,NW,325,1.1,1.1,58,0.00,CLR,,0.00,0.0,WeatherDisplay:10.37,2013-01-17 07:24:00,
2013-01-16 23:29:00,48.5,34.8,30.14,NW,325,2.3,2.3,59,0.00,CLR,,0.00,0.0,WeatherDisplay:10.37,2013-01-17 07:29:00,
2013-01-16 23:34:00,48.3,34.6,30.14,NW,325,1.1,1.1,59,0.00,CLR,,0.00,0.0,WeatherDisplay:10.37,2013-01-17 07:34:00,
2013-01-16 23:39:00,48.1,34.4,30.13,NW,325,1.1,1.1,59,0.00,CLR,,0.00,0.0,WeatherDisplay:10.37,2013-01-17 07:39:00,
2013-01-16 23:44:00,48.2,34.1,30.13,NW,325,2.3,2.3,58,0.00,CLR,,0.00,0.0,WeatherDisplay:10.37,2013-01-17 07:44:00,
2013-01-16 23:49:00,48.2,34.1,30.14,NW,325,2.0,2.0,58,0.00,CLR,,0.00,0.0,WeatherDisplay:10.37,2013-01-17 07:49:00,
2013-01-16 23:55:00,48.1,34.0,30.13,NW,326,3.5,3.5,58,0.00,CLR,,0.00,0.0,WeatherDisplay:10.37,2013-01-17 07:55:00,